Weather History for Little Falls, MN

Change the Weather History Date:

Wednesday, March 5, 2014

  Actual Average Record
Temperature  
Mean Temperature 11 °F -  
Max Temperature 21 °F 34 °F 56 °F (1987)
Min Temperature 1 °F 11 °F -23 °F (1960)
Degree Days  
Heating Degree Days 54    
Moisture  
Dew Point 3 °F    
Average Humidity 63    
Maximum Humidity 79    
Minimum Humidity 52    
Precipitation  
Precipitation 0.00 in - - ()
Sea Level Pressure  
Sea Level Pressure 30.34 in    
Wind  
Wind Speed 4 mph (SE)    
Max Wind Speed 13 mph    
Max Gust Speed -    
Visibility 10 miles    
Events      
Averages and records for this station are not official NWS values.
T = Trace of Precipitation, MM = Missing Value Source: NWS Daily Summary

Daily Weather History Graph

Daily Weather History Graph

Search for Another Location

Airport:

Trip Planner

Search our weather history database for the weather conditions in past years. The results will help you decide how hot, cold, wet, or windy it might be!

Date:

Astronomy

Mar. 05, 2014 Rise Set
Actual Time 6:48 AM CST 6:09 PM CST
Civil Twilight 6:18 AM CST 6:39 PM CST
Nautical Twilight 5:44 AM CST 7:14 PM CST
Astronomical Twilight 5:09 AM CST 7:48 PM CST
Moon 8:59 AM CST (3/5) 11:36 PM CST (3/5)
Length of Visible Light 12h 20m
Length of Day
11h 20m
Waxing Crescent, 23% of the Moon is Illuminated
Mar 5
Waxing Crescent
Mar 8
First Quarter
Mar 16
Full
Mar 23
Last Quarter
Mar 30
New

Hourly Weather History & Observations

Time (CST) Temp. Windchill Dew Point Humidity Pressure Visibility Wind Dir Wind Speed Gust Speed Precip Events Conditions
12:17 AM 10.4 °F - 1.4 °F 67% 30.30 in 5.0 mi Calm Calm - N/A   Haze
12:37 AM 10.4 °F - 1.4 °F 67% 30.30 in 7.0 mi Calm Calm - N/A   Clear
12:58 AM 12.2 °F - 1.4 °F 62% 30.31 in 10.0 mi Calm Calm - N/A   Clear
1:17 AM 12.2 °F - 1.4 °F 62% 30.31 in 10.0 mi Calm Calm - N/A   Clear
1:37 AM 12.2 °F 6.1 °F 1.4 °F 62% 30.31 in 10.0 mi ENE 3.5 mph - N/A   Scattered Clouds
1:58 AM 12.2 °F 6.1 °F 1.4 °F 62% 30.32 in 10.0 mi ENE 3.5 mph - N/A   Scattered Clouds
2:17 AM 12.2 °F 6.1 °F 1.4 °F 62% 30.32 in 10.0 mi East 3.5 mph - N/A   Scattered Clouds
2:38 AM 12.2 °F 6.1 °F 1.4 °F 62% 30.32 in 10.0 mi East 3.5 mph - N/A   Clear
2:57 AM 10.4 °F - 1.4 °F 67% 30.32 in 10.0 mi Calm Calm - N/A   Clear
3:17 AM 10.4 °F - 1.4 °F 67% 30.33 in 10.0 mi Calm Calm - N/A   Clear
3:38 AM 8.6 °F - -0.4 °F 67% 30.33 in 10.0 mi Calm Calm - N/A   Clear
3:57 AM 6.8 °F - -0.4 °F 72% 30.33 in 10.0 mi Calm Calm - N/A   Clear
4:17 AM 8.6 °F - -0.4 °F 67% 30.34 in 10.0 mi Calm Calm - N/A   Clear
4:38 AM 5.0 °F - -4.0 °F 66% 30.35 in 10.0 mi Calm Calm - N/A   Clear
4:57 AM 1.4 °F - -5.8 °F 72% 30.35 in 10.0 mi Calm Calm - N/A   Clear
5:17 AM 1.4 °F - -5.8 °F 72% 30.36 in 10.0 mi Calm Calm - N/A   Clear
5:38 AM 1.4 °F - -5.8 °F 72% 30.36 in 10.0 mi Calm Calm - N/A   Clear
5:57 AM 3.2 °F - -5.8 °F 66% 30.36 in 10.0 mi Calm Calm - N/A   Clear
6:17 AM 3.2 °F -4.2 °F -5.8 °F 66% 30.36 in 10.0 mi East 3.5 mph - N/A   Scattered Clouds
6:38 AM 5.0 °F -2.1 °F -4.0 °F 66% 30.37 in 10.0 mi ENE 3.5 mph - N/A   Scattered Clouds
6:57 AM 5.0 °F - -4.0 °F 66% 30.39 in 10.0 mi Calm Calm - N/A   Scattered Clouds
7:17 AM 5.0 °F - -5.8 °F 61% 30.39 in 10.0 mi Calm Calm - N/A   Clear
7:38 AM 3.2 °F - -5.8 °F 66% 30.40 in 10.0 mi Calm Calm - N/A   Clear
7:57 AM 5.0 °F - -4.0 °F 66% 30.41 in 10.0 mi Calm Calm - N/A   Clear
8:17 AM 8.6 °F - -4.0 °F 57% 30.43 in 10.0 mi Calm Calm - N/A   Clear
8:38 AM 10.4 °F 2.2 °F -4.0 °F 52% 30.42 in 10.0 mi East 4.6 mph - N/A   Clear
8:57 AM 10.4 °F 0.8 °F -4.0 °F 52% 30.41 in 10.0 mi East 5.8 mph - N/A   Clear
9:18 AM 10.4 °F -3.3 °F -2.2 °F 57% 30.41 in 10.0 mi East 10.4 mph - N/A   Clear
9:37 AM 10.4 °F -2.4 °F -0.4 °F 62% 30.41 in 10.0 mi East 9.2 mph - N/A   Clear
9:57 AM 12.2 °F 2.9 °F -0.4 °F 57% 30.41 in 10.0 mi ESE 5.8 mph - N/A   Clear
10:17 AM 14.0 °F 2.0 °F 1.4 °F 57% 30.41 in 10.0 mi ESE 9.2 mph - N/A   Clear
10:37 AM 14.0 °F 1.2 °F 1.4 °F 57% 30.41 in 10.0 mi ESE 10.4 mph - N/A   Clear
10:58 AM 14.0 °F 2.9 °F 3.2 °F 62% 30.41 in 10.0 mi ESE 8.1 mph - N/A   Clear
11:17 AM 14.0 °F 0.5 °F 3.2 °F 62% 30.41 in 10.0 mi SE 11.5 mph - N/A   Clear
11:37 AM 15.8 °F 4.2 °F 3.2 °F 58% 30.41 in 10.0 mi SE 9.2 mph - N/A   Clear
11:58 AM 15.8 °F 5.1 °F 3.2 °F 58% 30.41 in 10.0 mi ESE 8.1 mph - N/A   Clear
12:17 PM 17.6 °F 9.3 °F 5.0 °F 58% 30.41 in 10.0 mi ESE 5.8 mph - N/A   Clear
12:37 PM 17.6 °F 8.2 °F 5.0 °F 58% 30.41 in 10.0 mi East 6.9 mph - N/A   Clear
12:58 PM 17.6 °F 10.7 °F 5.0 °F 58% 30.41 in 10.0 mi East 4.6 mph - N/A   Clear
1:17 PM 17.6 °F 10.7 °F 5.0 °F 58% 30.39 in 10.0 mi ESE 4.6 mph - N/A   Clear
1:37 PM 19.4 °F 9.5 °F 5.0 °F 54% 30.38 in 10.0 mi East 8.1 mph - N/A   Clear
1:58 PM 19.4 °F 8.6 °F 5.0 °F 54% 30.36 in 10.0 mi ESE 9.2 mph - N/A   Clear
2:17 PM 19.4 °F 7.9 °F 5.0 °F 54% 30.36 in 10.0 mi ESE 10.4 mph - N/A   Clear
2:37 PM 19.4 °F 7.9 °F 5.0 °F 54% 30.35 in 10.0 mi SE 10.4 mph - N/A   Clear
2:58 PM 19.4 °F 10.4 °F 6.8 °F 58% 30.36 in 10.0 mi ESE 6.9 mph - N/A   Clear
3:17 PM 21.2 °F 12.6 °F 6.8 °F 54% 30.37 in 10.0 mi ESE 6.9 mph - N/A   Clear
3:37 PM 21.2 °F 10.1 °F 6.8 °F 54% 30.36 in 10.0 mi ESE 10.4 mph - N/A   Clear
3:58 PM 21.2 °F 11.7 °F 6.8 °F 54% 30.34 in 10.0 mi ESE 8.1 mph - N/A   Clear
4:17 PM 21.2 °F 11.7 °F 6.8 °F 54% 30.33 in 10.0 mi ESE 8.1 mph - N/A   Clear
4:37 PM 21.2 °F 10.9 °F 8.6 °F 58% 30.33 in 10.0 mi ESE 9.2 mph - N/A   Clear
4:58 PM 21.2 °F 12.6 °F 8.6 °F 58% 30.32 in 10.0 mi ESE 6.9 mph - N/A   Clear
5:17 PM 21.2 °F 13.6 °F 8.6 °F 58% 30.32 in 10.0 mi SE 5.8 mph - N/A   Clear
5:38 PM 21.2 °F 8.9 °F 8.6 °F 58% 30.32 in 10.0 mi SSE 12.7 mph - N/A   Clear
5:57 PM 21.2 °F 10.1 °F 8.6 °F 58% 30.32 in 10.0 mi SSE 10.4 mph - N/A   Clear
6:17 PM 21.2 °F 10.9 °F 8.6 °F 58% 30.31 in 10.0 mi SE 9.2 mph - N/A   Clear
6:38 PM 19.4 °F 10.4 °F 8.6 °F 63% 30.31 in 10.0 mi ESE 6.9 mph - N/A   Clear
6:57 PM 19.4 °F 8.6 °F 6.8 °F 58% 30.30 in 10.0 mi SE 9.2 mph - N/A   Clear
7:17 PM 17.6 °F 9.3 °F 6.8 °F 63% 30.30 in 10.0 mi SSE 5.8 mph - N/A   Clear
7:38 PM 17.6 °F 6.4 °F 6.8 °F 63% 30.30 in 10.0 mi SSE 9.2 mph - N/A   Clear
7:57 PM 17.6 °F 7.3 °F 8.6 °F 68% 30.29 in 10.0 mi SSE 8.1 mph - N/A   Clear
8:17 PM 17.6 °F 7.3 °F 8.6 °F 68% 30.28 in 10.0 mi SSE 8.1 mph - N/A   Clear
8:38 PM 17.6 °F 8.2 °F 8.6 °F 68% 30.29 in 10.0 mi South 6.9 mph - N/A   Clear
8:57 PM 15.8 °F 6.1 °F 8.6 °F 73% 30.30 in 10.0 mi SSE 6.9 mph - N/A   Clear
9:17 PM 15.8 °F 5.1 °F 8.6 °F 73% 30.29 in 10.0 mi SSE 8.1 mph - N/A   Clear
9:38 PM 14.0 °F 3.9 °F 8.6 °F 79% 30.29 in 10.0 mi SSE 6.9 mph - N/A   Clear
9:57 PM 14.0 °F 2.9 °F 8.6 °F 79% 30.28 in 10.0 mi SSE 8.1 mph - N/A   Clear
10:17 PM 14.0 °F 0.5 °F 8.6 °F 79% 30.26 in 10.0 mi SSE 11.5 mph - N/A   Clear
10:38 PM 15.8 °F 5.1 °F 8.6 °F 73% 30.27 in 10.0 mi South 8.1 mph - N/A   Clear
10:57 PM 14.0 °F 2.9 °F 8.6 °F 79% 30.27 in 10.0 mi South 8.1 mph - N/A   Clear
11:17 PM 14.0 °F 2.9 °F 8.6 °F 79% 30.26 in 10.0 mi SSE 8.1 mph - N/A   Clear
11:38 PM 14.0 °F 2.0 °F 8.6 °F 79% 30.26 in 10.0 mi SSE 9.2 mph - N/A   Clear
11:57 PM 14.0 °F 3.9 °F 8.6 °F 79% 30.26 in 10.0 mi SSE 6.9 mph - N/A   Clear